"Pseudo-MPEC" for W005xiU

Created 2020 Sep 17 8:07:46 UT using Find_Orb

Click here for an explanation of pseudo-MPECs

 
 Astrometry: 
     W005xiU ^C2020 09 12.32909121 54 14.790-35 42 35.82   ~9C97 20.97GVNEOCP568
     W005xiU ^C2020 09 12.33003721 54 14.695-35 42 49.41   ~9C97 20.77GVNEOCP568
     W005xiU ^C2020 09 12.33098421 54 14.602-35 43 02.95   ~9C97 20.85GVNEOCP568
     W005xiU ^C2020 09 12.33193121 54 14.517-35 43 16.54   ~9C97 21.46GVNEOCP568

Station data:
(568) Mauna Kea  (N19.826116 W155.472200)  US/Hawaii.

Orbital elements:  W005xiU
   Perigee 2020 Sep 17.083752 +/- 66 TT =  2:00:36 (JD 2459109.583752)
Epoch 2020 Sep 12.0 TT = JDT 2459104.5                        AutoNEOCP
M 325.93698271 +/- 60               (J2000 equator)
n   6.70036900 +/- 0.534            Peri.    8.33958 +/- 110
a601456.688 +/- 6.17e+7             Node   114.93189 +/- 37
e   0.8440315 +/- 0.276             Incl.   51.93519 +/- 22
P  53.73d                  H 32.2   G  0.15   U 12.3  SR
q 93808.2813 +/- 4.43e+7    Q 0.00741390 +/- 20
From 4 observations 2020 Sept. 12 (4.1 min); mean residual 0".03
Residuals in arcseconds: 
200912 568  .04+  .01-    200912 568  .05-  .04+    
200912 568  .03-  .00     200912 568  .04+  .03-    

Ephemerides (geocentric):
Date (UTC) HH   RA              Dec         delta   r     elong  mag " sig PA
---- -- -- --  -------------   -----------  ------ ------ -----  --- ---- ---
2020 09 17 08  09 39 29.668   +32 42 11.99   99695 1.0046  41.7 22??  53d 175
2020 09 17 09  09 58 39.987   +36 09 40.31  102444 1.0045  41.4 23??  71d   6
2020 09 17 10  10 18 21.018   +39 14 14.64  105514 1.0045  41.6 23??  36d  20
2020 09 17 11  10 38 27.210   +41 55 35.67  108866 1.0045  42.2 23??  35d  21
2020 09 17 12  10 58 50.723   +44 14 01.82  112461 1.0045  43.2 23??  34d  20
2020 09 17 13  11 19 21.760   +46 10 22.94  116263 1.0044  44.4 22??  33d  21
2020 09 17 14  11 39 49.164   +47 45 53.96  120240 1.0044  45.7 22??  33d  22
2020 09 17 15  12 00 01.232   +49 02 08.61  124363 1.0044  47.2 22??  32d  23
2020 09 17 16  12 19 46.596   +50 00 53.24  128608 1.0044  48.7 22??  31d  24
2020 09 17 17  12 38 55.041   +50 44 00.95  132951 1.0044  50.2 22??  31d  25
2020 09 17 18  12 57 18.118   +51 13 26.38  137376 1.0044  51.7 22??  30d  26
2020 09 17 19  13 14 49.492   +51 31 01.20  141864 1.0044  53.3 22??  30d  26
2020 09 17 20  13 31 25.015   +51 38 30.71  146402 1.0044  54.7 22??  30d  27
2020 09 17 21  13 47 02.581   +51 37 31.49  150977 1.0043  56.2 22??  30d  27
2020 09 17 22  14 01 41.828   +51 29 30.09  155581 1.0043  57.5 22??  30d  27
2020 09 17 23  14 15 23.786   +51 15 42.56  160203 1.0043  58.9 22??  30d  27
2020 09 18 00  14 28 10.501   +50 57 14.68  164836 1.0043  60.1 22.2  30d  26
2020 09 18 01  14 40 04.717   +50 35 02.57  169474 1.0043  61.4 22.2  31d  25
2020 09 18 02  14 51 09.587   +50 09 53.60  174113 1.0043  62.6 22.2  31d  24
2020 09 18 03  15 01 28.466   +49 42 27.41  178746 1.0043  63.7 22.1  31d  23
2020 09 18 04  15 11 04.751   +49 13 16.90  183370 1.0043  64.8 22.1  32d  22
2020 09 18 05  15 20 01.766   +48 42 49.21  187982 1.0043  65.8 22.1  32d  22
2020 09 18 06  15 28 22.692   +48 11 26.64  192580 1.0043  66.8 22.1  33d  21
2020 09 18 07  15 36 10.522   +47 39 27.38  197160 1.0043  67.8 22.1  33d  21
2020 09 18 08  15 43 28.039   +47 07 06.25  201721 1.0043  68.7 22.1  33d  21
2020 09 18 09  15 50 17.807   +46 34 35.21  206261 1.0043  69.6 22.1  34d  21
2020 09 18 10  15 56 42.176   +46 02 03.92  210779 1.0043  70.4 22.1  34d  21
2020 09 18 11  16 02 43.287   +45 29 40.10  215273 1.0043  71.2 22.1  34d  20
2020 09 18 12  16 08 23.086   +44 57 29.91  219744 1.0043  72.0 22.1  34d  20
2020 09 18 13  16 13 43.336   +44 25 38.20  224189 1.0043  72.8 22.1  35d  20
2020 09 18 14  16 18 45.637   +43 54 08.74  228609 1.0043  73.5 22.1  35d  20
2020 09 18 15  16 23 31.435   +43 23 04.47  233002 1.0043  74.2 22.1  35d  20
2020 09 18 16  16 28 02.040   +42 52 27.59  237369 1.0043  74.9 22.1  36d  20
2020 09 18 17  16 32 18.637   +42 22 19.73  241710 1.0043  75.5 22.1  36d  20
2020 09 18 18  16 36 22.300   +41 52 42.03  246023 1.0043  76.2 22.1  36d  19
2020 09 18 19  16 40 14.002   +41 23 35.26  250309 1.0043  76.8 22.1  36d  19
2020 09 18 20  16 43 54.627   +40 54 59.89  254567 1.0043  77.4 22.1  37d  19
2020 09 18 21  16 47 24.978   +40 26 56.11  258799 1.0043  77.9 22.1  37d  18
2020 09 18 22  16 50 45.784   +39 59 23.91  263003 1.0043  78.5 22.1  37d  18
2020 09 18 23  16 53 57.711   +39 32 23.14  267180 1.0043  79.0 22.1  38d  17
2020 09 19 00  16 57 01.365   +39 05 53.50  271330 1.0043  79.5 22.1  38d  17
2020 09 19 01  16 59 57.301   +38 39 54.59  275453 1.0043  80.0 22.1  39d  17
2020 09 19 02  17 02 46.025   +38 14 25.94  279549 1.0043  80.5 22.1  39d  17
2020 09 19 03  17 05 28.001   +37 49 27.00  283619 1.0043  81.0 22.1  39d  16
2020 09 19 04  17 08 03.656   +37 24 57.19  287662 1.0043  81.4 22.2  40d  16
2020 09 19 05  17 10 33.380   +37 00 55.89  291679 1.0043  81.9 22.2  40d  16
2020 09 19 06  17 12 57.534   +36 37 22.45  295669 1.0043  82.3 22.2  40d  16
2020 09 19 07  17 15 16.450   +36 14 16.23  299634 1.0043  82.7 22.2  40d  16